Location: Unspecified
(51.5147°N, 7.4673°E)
Time: 18:51:44
(UTC+01:00)

Explorer 7 - Pass Details

Date: 21 February 2026
Orbit: 430 x 541 km, 50.2° (Epoch: 12 March)

Event Time Altitude Azimuth Distance (km) Brightness Sun altitude
Rises 14:34:21 0° 222° (SW) 2,407 11.4 23.6°
Reaches altitude 10° 14:36:37 10° 210° (SSW) 1,553 11.2 23.4°
Maximum altitude 14:39:38 27° 150° (SSE) 891 8.5 23.2°
Drops below altitude 10° 14:42:44 10° 91° (E) 1,604 9.0 22.9°
Sets 14:45:07 0° 79° (E) 2,504 9.8 22.7°
